FM-5

Last updated on Tue Oct 14 2025 00:02:46 GMT+0000 (Coordinated Universal Time)

1 35493U 09034A 25286.61313201 -.00000213 00000+0 00000+0 0 9995 2 35493 0.0275 263.2831 0000612 221.5753 32.1592 1.00270510 44173
UTC large
Height (km)
Speed (km/s)
/
Latitude / Longitude
Inclination (degrees)
Orbital Period (minutes)
Azimuth
Elevation
Range (km)
Doppler Factor

Next 0 passes for location: London (51.5072 / 0.1276)

Sorry there are no passes over London.